WMT209 LRBS-LFPG

Flight info

Callsign WMT209
Flight time N/A
Altitude 36000
Route SOKRU DCT EKNAB DCT MAVIR DCT SUNIS DCT INPUL DCT UTABA UM164 LUPEN DCT STR DCT BERUG V32 EPL
Aircraft A320/M-SDE3FGHIRWY/LB1

Departure

Time 2026-05-04 16:02
Airport Bucharest Băneasa Aurel Vlaicu International Airport (LRBS)

Arrival

Time N/A
Airport Charles de Gaulle International Airport (LFPG)
Time Latitude Longitude Altitude Speed Heading
2026-05-04 15:14 44.49719 26.08355 335 ft 0 kts
2026-05-04 15:58 44.49732 26.08355 310 ft 4 kts 351°
2026-05-04 15:58 44.49741 26.08323 307 ft 5 kts 276°
2026-05-04 15:58 44.49723 26.08283 308 ft 7 kts 193°
2026-05-04 15:59 44.49687 26.08327 308 ft 9 kts 102°
2026-05-04 15:59 44.49681 26.08428 307 ft 10 kts 62°
2026-05-04 15:59 44.49746 26.08449 307 ft 7 kts
2026-05-04 15:59 44.49772 26.08389 308 ft 10 kts 282°
2026-05-04 16:00 44.49784 26.08286 308 ft 11 kts 279°
2026-05-04 16:00 44.49804 26.08181 307 ft 11 kts 315°
2026-05-04 16:00 44.49881 26.08175 307 ft 12 kts 26°
2026-05-04 16:00 44.49919 26.08284 308 ft 14 kts 74°
2026-05-04 16:01 44.49949 26.08431 308 ft 25 kts 74°
2026-05-04 16:01 44.50064 26.08985 306 ft 91 kts 74°
2026-05-04 16:01 44.50289 26.10071 309 ft 139 kts 74°
2026-05-04 16:01 44.50594 26.11514 559 ft 159 kts 73°
2026-05-04 16:02 44.50903 26.13004 1158 ft 162 kts 72°
2026-05-04 16:02 44.51218 26.14540 1715 ft 166 kts 74°
2026-05-04 16:02 44.51527 26.18001 2295 ft 202 kts 84°
2026-05-04 16:03 44.51643 26.20104 2491 ft 226 kts 84°
2026-05-04 16:03 44.51771 26.22386 2785 ft 250 kts 84°
2026-05-04 16:03 44.51915 26.24880 3408 ft 261 kts 81°
2026-05-04 16:03 44.52457 26.27270 4295 ft 257 kts 56°
2026-05-04 16:04 44.53626 26.29085 5267 ft 250 kts 33°
2026-05-04 16:04 44.56918 26.29971 7018 ft 251 kts 349°
2026-05-04 16:04 44.58512 26.28880 7764 ft 264 kts 325°
2026-05-04 16:05 44.59690 26.26830 8469 ft 279 kts 304°
2026-05-04 16:05 44.60515 26.24323 9186 ft 286 kts 300°
2026-05-04 16:05 44.62169 26.19137 10346 ft 304 kts 300°
2026-05-04 16:06 44.63072 26.16333 10471 ft 326 kts 299°
2026-05-04 16:06 44.65630 26.08246 11803 ft 346 kts 298°
2026-05-04 16:07 44.66923 26.04113 12575 ft 352 kts 298°